Radiation Dose at Monitoring Post of Fukushima Daini Nuclear Power Station
Date,Time,MP-1(microSv/h),MP-2(microSv/h),MP-3(microSv/h),MP-4(microSv/h),MP-5(microSv/h),MP-6(microSv/h),MP-7(microSv/h),Wind Direction,Wind Velocity(m/s),Rain
2024/04/16,00:00,0.147,0.128,0.210,0.195,0.206,0.115,0.077,south-southeast,3.2,No
2024/04/16,00:10,0.147,0.128,0.209,0.197,0.207,0.115,0.075,south,2.4,No
2024/04/16,00:20,0.148,0.127,0.209,0.195,0.205,0.114,0.075,south,3.2,No
2024/04/16,00:30,0.147,0.128,0.210,0.196,0.207,0.116,0.076,south,3.2,No
2024/04/16,00:40,0.147,0.127,0.210,0.196,0.205,0.115,0.076,south-southeast,3.3,No
2024/04/16,00:50,0.146,0.128,0.210,0.196,0.207,0.114,0.075,south-southeast,3.7,No
2024/04/16,01:00,0.147,0.128,0.210,0.195,0.206,0.115,0.076,south-southeast,3.6,No
2024/04/16,01:10,0.147,0.127,0.210,0.195,0.206,0.115,0.076,south-southeast,3.5,No
2024/04/16,01:20,0.147,0.127,0.209,0.195,0.207,0.115,0.076,south,2.7,No
2024/04/16,01:30,0.145,0.127,0.209,0.195,0.206,0.116,0.076,south,2.2,No
2024/04/16,01:40,0.147,0.128,0.210,0.196,0.208,0.114,0.076,south,2.9,No
2024/04/16,01:50,0.147,0.127,0.209,0.195,0.206,0.116,0.076,south,2.5,No
2024/04/16,02:00,0.147,0.128,0.210,0.196,0.208,0.114,0.076,south-southwest,2.8,No
2024/04/16,02:10,0.148,0.128,0.209,0.196,0.206,0.116,0.076,south,3.1,No
2024/04/16,02:20,0.146,0.128,0.209,0.196,0.206,0.116,0.076,south,3.0,No
2024/04/16,02:30,0.147,0.128,0.210,0.195,0.208,0.114,0.077,south,3.0,No
2024/04/16,02:40,0.147,0.128,0.210,0.195,0.206,0.116,0.077,south-southwest,3.1,No
2024/04/16,02:50,0.146,0.127,0.209,0.196,0.207,0.115,0.076,south,2.5,No
2024/04/16,03:00,0.147,0.129,0.210,0.196,0.205,0.116,0.077,south,2.8,No
2024/04/16,03:10,0.147,0.128,0.210,0.196,0.207,0.115,0.077,south,2.4,No
2024/04/16,03:20,0.147,0.127,0.210,0.195,0.207,0.115,0.076,south,2.0,No
2024/04/16,03:30,0.147,0.128,0.210,0.197,0.206,0.116,0.077,south,2.2,No
2024/04/16,03:40,0.147,0.128,0.210,0.195,0.206,0.116,0.076,south-southeast,2.4,No
2024/04/16,03:50,0.148,0.128,0.210,0.195,0.206,0.116,0.076,south,2.1,No
2024/04/16,04:00,0.147,0.127,0.208,0.197,0.206,0.116,0.076,south-southwest,3.1,No
2024/04/16,04:10,0.147,0.129,0.209,0.196,0.206,0.115,0.076,south,1.6,No
2024/04/16,04:20,0.147,0.127,0.209,0.196,0.205,0.115,0.076,south,0.6,No
2024/04/16,04:30,0.147,0.128,0.209,0.196,0.208,0.115,0.075,west-southwest,0.9,No
2024/04/16,04:40,0.147,0.128,0.209,0.195,0.206,0.116,0.076,southwest,1.1,No
2024/04/16,04:50,0.148,0.127,0.210,0.195,0.206,0.115,0.076,south,0.8,No
2024/04/16,05:00,0.147,0.128,0.209,0.196,0.206,0.116,0.076,south-southeast,1.0,No
2024/04/16,05:10,0.147,0.128,0.209,0.196,0.206,0.114,0.076,south,1.5,No
2024/04/16,05:20,0.148,0.127,0.210,0.195,0.206,0.116,0.077,south-southwest,1.5,No
2024/04/16,05:30,0.148,0.128,0.209,0.196,0.206,0.115,0.077,south-southwest,1.7,No
2024/04/16,05:40,0.148,0.127,0.209,0.196,0.207,0.116,0.076,south-southwest,1.1,No
2024/04/16,05:50,0.147,0.127,0.210,0.195,0.206,0.116,0.076,south,2.1,No
2024/04/16,06:00,0.147,0.129,0.210,0.196,0.207,0.116,0.076,south,1.9,No
2024/04/16,06:10,0.147,0.127,0.210,0.196,0.207,0.116,0.076,south-southwest,1.6,No
2024/04/16,06:20,0.147,0.128,0.208,0.196,0.205,0.115,0.076,south-southwest,1.6,No
2024/04/16,06:30,0.147,0.129,0.212,0.197,0.207,0.116,0.076,south-southwest,1.6,No
2024/04/16,06:40,0.148,0.128,0.209,0.195,0.206,0.115,0.076,south-southwest,2.0,No
2024/04/16,06:50,0.147,0.128,0.209,0.196,0.206,0.115,0.077,southwest,2.8,No
2024/04/16,07:00,0.148,0.128,0.209,0.196,0.208,0.115,0.077,southwest,2.3,No
2024/04/16,07:10,0.147,0.127,0.210,0.195,0.206,0.116,0.076,south-southwest,1.7,No
2024/04/16,07:20,0.148,0.128,0.210,0.195,0.207,0.116,0.077,south,1.3,No
2024/04/16,07:30,0.148,0.128,0.210,0.196,0.206,0.115,0.076,south,1.4,No
2024/04/16,07:40,0.147,0.128,0.210,0.195,0.208,0.115,0.077,south-southeast,1.2,No
2024/04/16,07:50,0.147,0.128,0.209,0.194,0.206,0.115,0.076,south-southeast,1.6,No
2024/04/16,08:00,0.147,0.128,0.210,0.196,0.207,0.116,0.076,south-southeast,3.0,No
2024/04/16,08:10,0.147,0.128,0.208,0.196,0.206,0.116,0.077,south-southeast,3.4,No
2024/04/16,08:20,0.147,0.128,0.209,0.195,0.208,0.116,0.076,south,3.8,No
2024/04/16,08:30,0.146,0.128,0.211,0.196,0.206,0.115,0.077,south-southeast,3.7,No
2024/04/16,08:40,0.147,0.129,0.209,0.195,0.207,0.116,0.076,south-southeast,5.2,No
2024/04/16,08:50,0.146,0.128,0.206,0.192,0.206,0.115,0.076,south-southeast,6.6,No
2024/04/16,09:00,0.145,0.128,0.208,0.195,0.204,0.115,0.076,south-southeast,7.9,No
2024/04/16,09:10,0.146,0.127,0.209,0.194,0.204,0.114,0.076,south-southeast,7.5,No
2024/04/16,09:20,0.145,0.126,0.208,0.193,0.207,0.115,0.075,south-southeast,9.0,No
2024/04/16,09:30,0.144,0.126,0.206,0.194,0.205,0.114,0.075,south-southeast,8.9,No
2024/04/16,09:40,0.145,0.127,0.206,0.195,0.204,0.114,0.075,south-southeast,9.3,No
2024/04/16,09:50,0.147,0.126,0.208,0.194,0.208,0.115,0.075,south-southeast,9.8,No
2024/04/16,10:00,0.145,0.125,0.210,0.192,0.205,0.115,0.075,south-southeast,9.6,No
2024/04/16,10:10,0.145,0.126,0.207,0.193,0.203,0.113,0.074,south-southeast,10.6,No
2024/04/16,10:20,0.145,0.126,0.207,0.194,0.205,0.113,0.075,south-southeast,12.0,No
2024/04/16,10:30,0.143,0.125,0.207,0.194,0.206,0.114,0.075,south-southeast,10.4,No
2024/04/16,10:40,0.145,0.126,0.206,0.192,0.205,0.114,0.075,south-southeast,10.1,No
2024/04/16,10:50,0.145,0.127,0.209,0.194,0.203,0.114,0.075,south-southeast,10.1,No
2024/04/16,11:00,0.145,0.127,0.209,0.196,0.206,0.114,0.075,south,11.4,No
2024/04/16,11:10,0.145,0.126,0.208,0.194,0.205,0.113,0.075,south-southeast,11.7,No
2024/04/16,11:20,0.147,0.127,0.208,0.193,0.203,0.115,0.075,south-southeast,12.5,No
2024/04/16,11:30,0.146,0.127,0.207,0.197,0.205,0.114,0.076,south-southeast,10.3,No
2024/04/16,11:40,0.145,0.126,0.209,0.196,0.206,0.113,0.074,south-southeast,9.8,No
2024/04/16,11:50,0.144,0.125,0.209,0.194,0.205,0.114,0.075,south-southeast,11.5,No
2024/04/16,12:00,0.147,0.127,0.207,0.194,0.204,0.115,0.075,south-southeast,11.7,No
2024/04/16,12:10,0.146,0.126,0.208,0.196,0.207,0.113,0.075,south-southeast,11.2,No
2024/04/16,12:20,0.145,0.125,0.207,0.194,0.207,0.114,0.076,south-southeast,11.1,No
2024/04/16,12:30,0.144,0.127,0.209,0.193,0.204,0.114,0.075,south-southeast,10.6,No
2024/04/16,12:40,0.146,0.128,0.209,0.196,0.206,0.113,0.075,south-southeast,9.8,No
2024/04/16,12:50,0.146,0.127,0.207,0.195,0.206,0.115,0.075,south-southeast,12.3,No
2024/04/16,13:00,0.145,0.126,0.209,0.193,0.205,0.114,0.076,south-southeast,10.6,No
2024/04/16,13:10,0.144,0.128,0.210,0.196,0.205,0.114,0.075,south-southeast,11.2,No
2024/04/16,13:20,0.147,0.126,0.209,0.195,0.206,0.115,0.075,south-southeast,11.8,No
2024/04/16,13:30,0.147,0.128,0.207,0.194,0.204,0.114,0.074,south-southeast,11.5,No
2024/04/16,13:40,0.145,0.126,0.208,0.195,0.207,0.114,0.075,south-southeast,10.3,No
2024/04/16,13:50,0.144,0.126,0.210,0.195,0.207,0.114,0.075,south-southeast,9.7,No
2024/04/16,14:00,0.147,0.127,0.207,0.194,0.204,0.114,0.075,south-southeast,10.1,No
2024/04/16,14:10,0.147,0.126,0.209,0.196,0.207,0.115,0.075,south,11.5,No
2024/04/16,14:20,0.145,0.127,0.210,0.195,0.206,0.113,0.075,south-southeast,10.0,No
2024/04/16,14:30,0.146,0.127,0.208,0.194,0.203,0.115,0.074,south-southeast,11.1,No
2024/04/16,14:40,0.146,0.127,0.207,0.196,0.204,0.115,0.074,south-southeast,11.5,No
2024/04/16,14:50,0.144,0.126,0.209,0.194,0.207,0.114,0.075,south-southeast,12.3,No
2024/04/16,15:00,0.145,0.127,0.208,0.194,0.204,0.114,0.075,south-southeast,11.7,No
2024/04/16,15:10,0.146,0.127,0.208,0.197,0.204,0.115,0.075,south,12.8,No
2024/04/16,15:20,0.145,0.127,0.210,0.195,0.206,0.114,0.075,south,12.8,No
2024/04/16,15:30,0.146,0.127,0.208,0.195,0.205,0.114,0.075,south-southeast,11.7,No
2024/04/16,15:40,0.147,0.126,0.210,0.196,0.207,0.114,0.074,south-southeast,10.1,No
2024/04/16,15:50,0.145,0.128,0.209,0.196,0.206,0.115,0.075,south-southeast,10.9,No
2024/04/16,16:00,0.146,0.127,0.210,0.196,0.206,0.115,0.075,south,10.3,No
2024/04/16,16:10,0.147,0.128,0.209,0.195,0.207,0.115,0.075,south-southeast,8.1,No
2024/04/16,16:20,0.146,0.127,0.209,0.197,0.204,0.115,0.075,south-southeast,8.1,No
2024/04/16,16:30,0.146,0.127,0.210,0.194,0.208,0.114,0.075,south,7.7,No
2024/04/16,16:40,0.146,0.126,0.209,0.196,0.205,0.114,0.075,south,8.5,No
2024/04/16,16:50,0.147,0.127,0.210,0.196,0.207,0.114,0.074,south,8.7,No
2024/04/16,17:00,0.146,0.127,0.209,0.195,0.206,0.114,0.075,south,8.3,No
2024/04/16,17:10,0.147,0.128,0.210,0.196,0.206,0.116,0.076,south,8.6,No
2024/04/16,17:20,0.146,0.127,0.209,0.195,0.206,0.114,0.075,south-southeast,9.3,No
2024/04/16,17:30,0.146,0.127,0.210,0.197,0.206,0.115,0.075,south,8.9,No
2024/04/16,17:40,0.146,0.127,0.207,0.194,0.205,0.115,0.076,south,9.2,No
2024/04/16,17:50,0.145,0.127,0.209,0.196,0.205,0.114,0.074,south,8.1,No
2024/04/16,18:00,0.147,0.127,0.208,0.194,0.208,0.115,0.075,south-southeast,6.9,Yes
2024/04/16,18:10,0.145,0.127,0.209,0.196,0.205,0.114,0.076,south,5.4,Yes
2024/04/16,18:20,0.147,0.128,0.210,0.194,0.207,0.114,0.075,south,5.8,No
2024/04/16,18:30,0.145,0.127,0.210,0.196,0.204,0.115,0.076,south,5.0,No
2024/04/16,18:40,0.147,0.127,0.208,0.195,0.207,0.114,0.076,south,4.9,Yes
2024/04/16,18:50,0.147,0.127,0.210,0.197,0.205,0.114,0.076,south-southwest,5.1,Yes
2024/04/16,19:00,0.147,0.127,0.209,0.195,0.207,0.115,0.075,south,4.6,Yes
2024/04/16,19:10,0.146,0.126,0.210,0.197,0.205,0.114,0.076,south,3.9,Yes
2024/04/16,19:20,0.147,0.128,0.210,0.195,0.207,0.115,0.076,south-southwest,5.6,Yes
2024/04/16,19:30,0.147,0.127,0.210,0.197,0.204,0.114,0.075,south,5.8,No
2024/04/16,19:40,0.147,0.128,0.208,0.195,0.207,0.115,0.076,south,6.0,Yes
2024/04/16,19:50,0.147,0.127,0.209,0.195,0.206,0.114,0.076,south,6.4,Yes
2024/04/16,20:00,0.146,0.128,0.210,0.195,0.206,0.115,0.075,south,5.5,No
2024/04/16,20:10,0.146,0.128,0.210,0.196,0.206,0.114,0.075,south,5.8,No
2024/04/16,20:20,0.147,0.127,0.209,0.196,0.206,0.114,0.076,south,6.8,No
2024/04/16,20:30,0.146,0.127,0.209,0.197,0.206,0.115,0.075,south-southwest,6.9,Yes
2024/04/16,20:40,0.147,0.127,0.211,0.196,0.206,0.114,0.076,south-southwest,7.5,No
2024/04/16,20:50,0.146,0.126,0.210,0.196,0.207,0.115,0.075,south,5.8,No
2024/04/16,21:00,0.146,0.127,0.210,0.194,0.206,0.114,0.075,south-southwest,7.5,No
2024/04/16,21:10,0.147,0.127,0.209,0.197,0.206,0.114,0.075,south,6.8,Yes
2024/04/16,21:20,0.147,0.126,0.211,0.195,0.206,0.114,0.075,south-southwest,7.2,Yes
2024/04/16,21:30,0.146,0.127,0.208,0.196,0.205,0.115,0.075,south-southwest,7.9,No
2024/04/16,21:40,0.147,0.127,0.211,0.195,0.206,0.114,0.076,south,6.8,No
2024/04/16,21:50,0.146,0.127,0.208,0.196,0.205,0.114,0.075,south-southwest,6.7,No
2024/04/16,22:00,0.146,0.127,0.209,0.195,0.206,0.114,0.075,south-southwest,7.3,No
2024/04/16,22:10,0.145,0.127,0.210,0.198,0.205,0.115,0.075,south-southwest,6.9,No
2024/04/16,22:20,0.147,0.128,0.209,0.196,0.207,0.115,0.074,south-southwest,6.0,No
2024/04/16,22:30,0.146,0.127,0.210,0.196,0.205,0.115,0.075,south-southwest,6.5,No
2024/04/16,22:40,0.146,0.128,0.209,0.195,0.208,0.114,0.075,south,5.9,No
2024/04/16,22:50,0.146,0.127,0.210,0.195,0.206,0.115,0.074,south-southwest,6.4,No
2024/04/16,23:00,0.147,0.127,0.209,0.196,0.207,0.114,0.075,south-southwest,6.2,No
2024/04/16,23:10,0.146,0.128,0.208,0.196,0.205,0.115,0.076,south-southwest,5.9,No
2024/04/16,23:20,0.147,0.127,0.211,0.196,0.207,0.114,0.076,south,6.8,No
2024/04/16,23:30,0.145,0.128,0.208,0.195,0.206,0.115,0.075,south-southwest,6.6,No
2024/04/16,23:40,0.147,0.127,0.211,0.196,0.206,0.114,0.075,south,6.9,No
2024/04/16,23:50,0.145,0.127,0.210,0.195,0.206,0.114,0.075,south-southwest,6.1,No
